Flag for Germany Weather past 2 weeks in Kaarst, North Rhine-Westphalia, Germany

Now
34 °F

Light rain. Passing clouds.


Feels Like: 27 °F
Forecast: 18 / 28 °F
Wind: 8 mph from East

Location: Monchengladbach Airport

Current Time: Dec 27, 2014 at 2:54:11 PM

Latest Report: Dec 27, 2014 at 2:20 PM


Visibility: 1 mi

Pressure: 29.42 "Hg

Humidity: 93%

Dew point: 32 °F

Location of KaarstLocation

Historic Weather in Kaarst — Graph

°F

Kaarst temperature yesterday

Maximum temperature yesterday: 41 °F (at 1:20 PM)
Minimum temperature yesterday: 36 °F (at 9:20 AM)
Average temperature yesterday: 39 °F

Past Weeks' High & Low Weather Summary

 TemperatureHumidityPressure
High55 °F (Dec 18, 12:20 PM)100% (Dec 13, 7:50 AM)30.39 "Hg (Dec 13, 7:50 AM)
Low30 °F (Dec 14, 7:50 AM)71% (Dec 14, 1:50 PM)29.42 "Hg (Dec 12, 1:20 PM)
Average45 °F88%29.94 "Hg
* Reported Dec 12 1:20 PM — Dec 27 1:50 PM, Kaarst, Weather by CustomWeather, © 2014

Note: Actual official high and low records may vary slightly from our data, if they occured in-between our weather recording intervals... More about our weather records

Advertising

Kaarst weather history for previous 24 hours

 ConditionsComfort  
Time TempWeatherWind HumidityBarometerVisibility
1:50 PM
Dec 27
34 °FLight rain. Passing clouds.10 mph100%29.42 "Hg1 mi
1:20 PM34 °FLight rain. Passing clouds.12 mph100%29.42 "Hg1 mi
12:50 PM34 °FLight rain. Passing clouds.15 mph100%29.42 "Hg2 mi
12:20 PM34 °FLight rain. Passing clouds.16 mph100%29.42 "Hg2 mi
11:50 AM34 °FLight rain. Passing clouds.18 mph100%29.42 "Hg2 mi
11:20 AM34 °FLight rain. Passing clouds.18 mph100%29.42 "Hg2 mi
10:50 AM34 °FLight rain. Passing clouds.18 mph100%29.42 "Hg2 mi
10:20 AM34 °FLight rain. Passing clouds.21 mph100%29.42 "Hg2 mi
9:50 AM34 °FLight rain. Fog.18 mph93%29.42 "Hg1 mi
9:20 AM34 °FLight snow. Fog.17 mph93%29.42 "Hg1 mi
8:50 AM34 °FLow clouds.20 mph93%29.45 "Hg1 mi
8:20 AM34 °FLow clouds.21 mph100%29.45 "Hg1 mi
7:50 AM32 °FSnow. Passing clouds.21 mph100%29.45 "Hg1 mi
3:50 PM
Dec 26
39 °FPassing clouds.5 mph93%30.33 "HgN/A
3:20 PM39 °FPassing clouds.5 mph93%30.33 "HgN/A
2:50 PM41 °FPassing clouds.3 mph87%30.36 "HgN/A
2:20 PM41 °FPassing clouds.5 mph87%30.36 "HgN/A
Weather by CustomWeather, © 2014

See weather overviewHow to use our weather pages